星链-33781 (STARLINK-33781)

导读

STARLINK-33781是美国于2025年5月4日发射的星链系列卫星,星链是美国太空探索技术公司打造的低轨卫星互联网星座项目,该卫星入轨后将参与星座组网,为全球多地提供高速低延迟互联网接入服务,进一步拓展星链系统的覆盖范围与服务能力。

基本信息
目录编号:
63826
目录名称:
STARLINK-33781
国际标识:
2025-092Y
轨道中心:
EARTH
卫星名称:
星链-33781
卫星全名:
星链-33781 (STARLINK-33781)
卫星状态:
在轨 (已飞行488 天)
发射日期:
2025-05-04 UTC
国别 :
美国 (US)
星等 :
--
轨道信息
数据来源 国际轨道数据
星历时间: 2026-09-03T19:48:13+0800
21小时前
查看轨道信息
半长轴: 6861.143km
偏心率: 0.0001946
轨道倾角: 43.002°
近地点辐角 276.423°
升交点赤经 248.716°
平近点角 83.640°
近地点: 481.67km
远地点: 484.342km
周期: 94.266分钟
每日圈数: 15.275945
详细信息
固有亮度:
5
最大亮度:
2.5
卫星平台:
Starlink V1.0
覆盖范围:
全球
运营商:
太空探索技术公司
运营商所在国:
美国
制造商(研发单位):
太空探索技术公司
制造商所在国:
美国
使用方式:
暂无
卫星简介
Starlink 计划是 SpaceX 推出的全球卫星互联网项目,通过发射低轨道卫星,为全球尤其是偏远地区提供高速、低延迟的互联网服务。自 2019 年起,Starlink 已部署数千颗卫星,旨在缩小全球数字鸿沟,推动互联网普及。该项目还为军事、航空等行业提供通信支持,带来广泛经济效益。
2D轨道图
3D轨道图
轨道高度分析图
轨道倾角分析图
轨道综合分析图
查看轨道综合分析图
交会数据列表
事件ID 空间交会对象 最接近时刻(TCA) 交会距离 交会风险概率(CRP) 交会风险指数(CRI) 操作
CDM_260905-034305-537806-382621
2026-09-05T
03:43:31+0000
0.324 km
远距离
3.816681E-4 高风险 0.87
CDM_260905-020905-537806-382621
2026-09-05T
02:09:22+0000
1.309 km
极远距离
8.094924E-6 低风险 0.53
CDM_260905-084406-382606-414421
2026-09-05T
08:44:58+0000
1.516 km
极远距离
4.162562E-6 低风险 0.47
CDM_260905-051705-537806-382621
2026-09-05T
05:17:41+0000
1.771 km
极远距离
3.09759E-6 低风险 0.45
CDM_260905-003505-537806-382621
2026-09-05T
00:35:13+0000
2.781 km
极远距离
1.180459E-6 低风险 0.36